Date,TemperatureHighF,TemperatureAvgF,TemperatureLowF,DewpointHighF,DewpointAvgF,DewpointLowF,HumidityHigh,HumidityAvg,HumidityLow,PressureMaxIn,PressureMinIn,WindSpeedMaxMPH,WindSpeedAvgMPH,GustSpeedMaxMPH,PrecipitationSumIn
2013-3-1,65.1,58.3,53.8,44.5,35.5,25.9,67,44,24,30.12,30.00,10,2,10,0.00
2013-3-2,59.7,53.3,41.7,34.0,26.6,19.9,65,36,24,30.15,30.06,10,2,10,0.00
2013-3-3,57.0,47.3,37.9,31.4,24.2,20.7,66,41,27,61.18,30.09,13,2,13,18.21
2013-3-4,78.3,48.1,32.4,37.7,26.5,-30.0,84,48,17,30.36,30.21,18,1,18,0.00
2013-3-5,75.9,59.3,39.4,53.8,39.6,31.1,98,55,21,30.33,30.15,115,1,115,0.00
2013-3-6,70.5,61.6,49.5,63.3,35.1,11.1,98,47,12,30.24,30.06,15,3,15,0.00
2013-3-7,64.6,54.1,44.1,42.6,33.9,24.2,83,48,36,30.33,24.57,11,2,11,0.00
2013-3-8,67.8,56.9,43.2,53.7,41.5,30.6,98,61,27,30.33,30.24,11,1,11,0.00
2013-3-9,51.3,49.4,48.2,45.8,42.7,40.7,83,78,71,30.30,30.24,0,0,0,0.00
2013-3-11,75.0,66.9,54.5,63.2,52.2,44.3,97,62,35,30.24,30.09,13,3,13,0.00
2013-3-12,73.8,68.7,62.4,70.9,62.6,55.8,98,81,68,30.15,30.00,12,2,12,0.00
2013-3-13,71.8,61.1,50.5,56.8,44.0,5.8,96,59,23,91.07,30.09,12,2,12,0.97
2013-3-14,54.0,52.3,49.8,45.2,42.5,39.9,75,69,67,30.30,30.21,2,0,2,0.00
2013-3-15,66.9,60.2,43.5,44.4,33.6,23.2,84,41,20,91.07,30.27,8,2,8,0.00
2013-3-16,76.8,60.0,41.5,54.2,40.7,25.0,98,57,18,91.07,30.18,12,2,12,0.00
2013-3-17,61.7,52.2,47.3,48.8,46.2,43.1,95,81,58,30.24,30.21,2,0,2,0.00
2013-3-18,77.4,71.1,66.9,65.1,61.2,55.0,94,73,46,30.12,30.06,8,2,8,0.00
2013-3-19,81.0,70.1,61.7,68.4,61.2,53.2,98,77,42,30.12,30.03,18,2,18,0.00
2013-3-20,78.1,70.3,62.4,70.8,59.6,48.6,98,73,39,30.09,24.57,19,1,19,0.00
2013-3-21,68.7,61.1,48.0,55.2,38.9,20.1,92,52,17,30.09,24.57,7,2,7,0.00
2013-3-22,73.8,57.8,43.0,62.5,43.5,33.7,94,65,26,30.15,30.00,115,2,115,0.00
2013-3-24,88.3,73.2,67.5,72.6,66.4,51.7,98,83,34,30.00,29.76,24,2,24,0.00
2013-3-25,73.2,68.3,56.8,70.3,42.5,14.4,98,52,11,30.15,29.85,12,2,12,0.00
2013-3-26,62.8,55.4,48.2,31.9,20.7,9.8,42,27,14,32.13,30.12,13,2,13,0.00
2013-3-27,61.5,52.1,42.8,35.3,27.7,23.0,70,41,24,30.39,30.27,20,2,20,0.00
2013-3-28,66.2,55.3,41.4,41.7,33.7,16.8,88,49,16,30.44,30.30,20,2,20,0.00
2013-3-29,70.7,59.1,46.9,49.0,38.5,0.0,100,52,25,30.44,30.33,11,2,229,0.00
2013-3-30,73.6,61.5,47.1,58.1,43.8,39.7,98,57,31,30.36,30.27,19,2,19,0.00
2013-3-31,82.8,68.2,53.8,61.8,51.3,42.2,90,58,25,30.33,30.15,15,2,15,0.00